ProjectID,Date,Electric Generation,Electric Utility Import,Facility Electric Load
,YYYY-MM-DD,kW,kW,kW
370,2016-07-22,0.0,35.5,35.5
370,2016-07-23,0.0,1161.5416666666667,1161.5416666666667
370,2016-07-24,0.0,1197.7083333333333,1197.7083333333333
370,2016-07-25,0.0,1685.9583333333333,1685.9583333333333
370,2016-07-26,0.0,1595.5,1595.5
370,2016-07-27,0.0,1583.625,1583.625
370,2016-07-28,0.0,1639.0833333333333,1639.0833333333333
370,2016-07-29,0.0,1552.25,1552.25
370,2016-07-30,0.0,1157.0416666666667,1157.0416666666667
370,2016-07-31,0.0,1193.2083333333333,1193.2083333333333
370,2016-08-01,0.0,1605.0416666666667,1605.0416666666667
370,2016-08-02,0.0,1586.0,1586.0
370,2016-08-03,0.0,1582.625,1582.625
370,2016-08-04,0.0,1603.9583333333333,1603.9583333333333
370,2016-08-05,0.08416666666666667,1600.125,1600.2091666666668
370,2016-08-06,0.0,1214.625,1214.625
370,2016-08-07,0.0,755.3333333333334,755.3333333333334
370,2016-08-08,0.0,0.0,0.0
370,2016-08-09,0.0,0.0,0.0
370,2016-08-10,0.0,0.0,0.0
370,2016-08-11,0.0,0.0,0.0
370,2016-08-12,0.0,0.0,0.0
370,2016-08-13,0.0,0.0,0.0
370,2016-08-14,0.0,0.0,0.0
370,2016-08-15,10.794583333333334,344.0833333333333,354.87791666666664
370,2016-08-16,31.48875,1089.625,1121.11375
370,2016-08-17,1.24,30.75,31.99
370,2016-08-18,22.990416666666665,1539.9166666666667,1562.9070833333335
370,2016-08-19,1.19625,35.75,36.94625
370,2016-08-20,35.82625,1328.4583333333333,1364.2845833333333
370,2016-08-21,38.060833333333335,1418.375,1456.4358333333334
370,2016-08-22,61.6975,1309.8333333333333,1371.5308333333332
370,2016-08-23,46.60208333333333,1374.625,1421.2270833333334
370,2016-08-24,1.3154166666666667,34.25,35.565416666666664
370,2016-08-25,33.8425,1581.5833333333333,1615.4258333333332
370,2016-08-26,36.90208333333333,1654.0416666666667,1690.9437500000001
370,2016-08-27,0.0,37.291666666666664,37.291666666666664
370,2016-08-28,0.0,0.0,0.0
370,2016-08-29,36.57208333333333,1626.0416666666667,1662.61375
370,2016-08-30,49.30875,1568.625,1617.93375
370,2016-08-31,36.78666666666667,1676.7083333333333,1713.495
370,2016-09-01,61.85874999999999,1499.3333333333333,1561.1920833333334
370,2016-09-02,75.51166666666667,122.83333333333333,198.345
370,2016-09-03,67.25958333333334,0.0,67.25958333333334
370,2016-09-04,2.6004166666666664,0.0,2.6004166666666664
370,2016-09-05,69.09541666666667,0.0,69.09541666666667
370,2016-09-06,60.37041666666667,0.0,60.37041666666667
370,2016-09-07,36.3575,585.0416666666666,621.3991666666666
370,2016-09-08,1.1441666666666668,49.5,50.64416666666666
370,2016-09-09,23.995416666666667,1662.5,1686.4954166666666
370,2016-09-10,36.02166666666667,1557.0833333333333,1593.105
370,2016-09-11,56.31791666666667,1349.5,1405.8179166666666
370,2016-09-12,81.825,1369.2083333333333,1451.0333333333333
370,2016-09-13,75.78166666666667,1544.9166666666667,1620.6983333333335
370,2016-09-14,75.93166666666666,1540.5,1616.4316666666666
370,2016-09-15,82.34541666666667,1254.2083333333333,1336.55375
370,2016-09-16,80.66541666666667,1265.7083333333333,1346.37375
370,2016-09-17,76.09166666666667,1237.25,1313.3416666666667
370,2016-09-18,74.2775,1414.5,1488.7775
370,2016-09-19,73.05708333333332,1616.6666666666667,1689.72375
370,2016-09-20,72.27374999999999,1610.0833333333333,1682.3570833333333
370,2016-09-21,75.57875,1476.7083333333333,1552.2870833333332
370,2016-09-22,63.16,1515.0416666666667,1578.2016666666668
370,2016-09-23,73.02958333333333,1411.1666666666667,1484.19625
370,2016-09-24,2.6824999999999997,32.375,35.0575
370,2016-09-25,108.2375,894.25,1002.4875
370,2016-09-26,100.33749999999999,1212.9583333333333,1313.2958333333333
370,2016-09-27,101.92041666666667,1295.0833333333333,1397.0037499999999
370,2016-09-28,98.33166666666666,1296.5833333333333,1394.915
370,2016-09-29,103.955,1206.125,1310.08
370,2016-09-30,3.3674999999999997,33.75,37.1175
370,2016-10-01,102.78708333333333,909.4166666666666,1012.2037499999999
370,2016-10-02,100.06791666666668,1153.2083333333333,1253.27625
370,2016-10-03,98.70625,1250.4166666666667,1349.1229166666667
370,2016-10-04,100.40083333333332,1274.5,1374.9008333333334
370,2016-10-05,3.276666666666667,34.0,37.276666666666664
370,2016-10-06,0.0,0.0,0.0
370,2016-10-07,40.76,738.0,778.76
370,2016-10-08,101.96083333333333,1105.125,1207.0858333333333
370,2016-10-09,88.85083333333334,895.3333333333334,984.1841666666667
370,2016-10-10,114.28125,1004.7916666666666,1119.0729166666665
370,2016-10-11,125.39916666666666,1069.9583333333333,1195.3574999999998
370,2016-10-12,3.6354166666666665,26.791666666666668,30.427083333333336
370,2016-10-13,99.61541666666666,1056.6666666666667,1156.2820833333335
370,2016-10-14,122.28583333333334,990.75,1113.0358333333334
370,2016-10-15,120.34750000000001,936.625,1056.9725
370,2016-10-16,109.66083333333334,1212.8333333333333,1322.4941666666666
370,2016-10-17,105.815,1466.7916666666667,1572.6066666666668
370,2016-10-18,86.21416666666666,1554.125,1640.3391666666666
370,2016-10-19,2.4183333333333334,43.416666666666664,45.835
370,2016-10-20,114.71166666666666,1020.9583333333334,1135.67
370,2016-10-21,56.34458333333333,1099.0416666666667,1155.38625
370,2016-10-22,1.0329166666666667,511.7083333333333,512.74125
370,2016-10-23,5.076666666666667,0.0,5.076666666666667
370,2016-10-24,0.0,604.8333333333334,604.8333333333334
370,2016-10-25,0.0,30.541666666666668,30.541666666666668
370,2016-10-26,0.0,0.0,0.0
370,2016-10-27,0.0,0.0,0.0
370,2016-10-28,0.0,613.375,613.375
370,2016-10-29,0.0,1103.625,1103.625
370,2016-10-30,0.0,1034.5416666666667,1034.5416666666667
370,2016-10-31,0.0,1199.2083333333333,1199.2083333333333
370,2016-11-01,0.0,1207.8333333333333,1207.8333333333333
370,2016-11-02,0.0,1291.875,1291.875
370,2016-11-03,35.51625,1164.2916666666667,1199.8079166666666
370,2016-11-04,110.44416666666666,1030.25,1140.6941666666667
370,2016-11-05,122.29041666666666,846.375,968.6654166666667
370,2016-11-06,117.58958333333334,909.5833333333334,1027.1729166666667
370,2016-11-07,127.28625,1055.3333333333333,1182.6195833333331
370,2016-11-08,115.06333333333333,1121.875,1236.9383333333333
370,2016-11-09,116.22541666666666,1077.75,1193.9754166666667
370,2016-11-10,120.75041666666668,1067.4583333333333,1188.20875
370,2016-11-11,115.19833333333334,1045.4166666666667,1160.615
370,2016-11-12,132.20583333333335,887.0416666666666,1019.2475
370,2016-11-13,121.27166666666666,909.375,1030.6466666666668
370,2016-11-14,95.40333333333332,891.9583333333334,987.3616666666667
370,2016-11-15,117.10000000000001,1078.1666666666667,1195.2666666666667
370,2016-11-16,113.62916666666666,1080.5833333333333,1194.2124999999999
370,2016-11-17,115.46208333333334,1081.4583333333333,1196.9204166666666
370,2016-11-18,112.35416666666667,1066.125,1178.4791666666667
370,2016-11-19,107.26625,894.3333333333334,1001.5995833333334
370,2016-11-20,130.35333333333332,869.5416666666666,999.895
370,2016-11-21,137.98208333333335,946.625,1084.6070833333333
370,2016-11-22,140.42291666666668,933.5833333333334,1074.0062500000001
370,2016-11-23,138.88791666666665,904.5416666666666,1043.4295833333333
370,2016-11-24,138.16625,797.4583333333334,935.6245833333334
370,2016-11-25,131.03,795.4166666666666,926.4466666666666
370,2016-11-26,130.21916666666667,795.7083333333334,925.9275
370,2016-11-27,133.70374999999999,810.625,944.32875
370,2016-11-28,136.51458333333332,246.0,382.51458333333335
370,2016-11-29,136.465,0.0,136.465
370,2016-11-30,136.415,0.0,136.415
370,2016-12-01,134.57500000000002,0.0,134.57500000000002
370,2016-12-02,136.01666666666668,0.0,136.01666666666668
370,2016-12-03,136.04958333333335,0.0,136.04958333333335
370,2016-12-04,136.01916666666668,0.0,136.01916666666668
370,2016-12-05,136.01874999999998,0.0,136.01874999999998
370,2016-12-06,135.91958333333335,0.0,135.91958333333335
370,2016-12-07,135.96916666666667,0.0,135.96916666666667
370,2016-12-08,136.01874999999998,0.0,136.01874999999998
370,2016-12-09,135.96958333333333,0.0,135.96958333333333
370,2016-12-10,135.96916666666667,0.0,135.96916666666667
370,2016-12-11,136.01874999999998,0.0,136.01874999999998
370,2016-12-12,137.43166666666667,356.7916666666667,494.22333333333336
370,2016-12-13,141.61083333333332,1058.75,1200.3608333333334
370,2016-12-14,142.95624999999998,1056.5,1199.45625
370,2016-12-15,146.17791666666668,1055.75,1201.9279166666668
370,2016-12-16,152.6025,1027.125,1179.7275
370,2016-12-17,147.25333333333333,872.7083333333334,1019.9616666666667
370,2016-12-18,140.90208333333334,874.5416666666666,1015.4437499999999
370,2016-12-19,159.66833333333332,984.0416666666666,1143.71
370,2016-12-20,153.47,976.3333333333334,1129.8033333333333
370,2016-12-21,144.68416666666667,964.4166666666666,1109.1008333333334
370,2016-12-22,142.15458333333333,944.9166666666666,1087.07125
370,2016-12-23,139.04833333333332,890.9166666666666,1029.965
370,2016-12-24,132.31458333333333,790.375,922.6895833333333
370,2016-12-25,140.19791666666666,789.7083333333334,929.90625
370,2016-12-26,141.24208333333334,793.375,934.6170833333333
370,2016-12-27,127.51916666666666,876.4166666666666,1003.9358333333333
370,2016-12-28,141.34875,884.25,1025.59875
370,2016-12-29,137.42,887.4166666666666,1024.8366666666666
370,2016-12-30,142.1,877.4583333333334,1019.5583333333334
370,2016-12-31,141.40083333333334,803.4166666666666,944.8175
370,2017-01-01,137.59083333333334,781.9166666666666,919.5074999999999
370,2017-01-02,145.03166666666667,810.7916666666666,955.8233333333333
370,2017-01-03,133.90625,950.9166666666666,1084.8229166666665
370,2017-01-04,135.65666666666667,955.125,1090.7816666666668
370,2017-01-05,154.64958333333334,954.1666666666666,1108.8162499999999
370,2017-01-06,161.50625,946.125,1107.63125
370,2017-01-07,5.2675,24.666666666666668,29.93416666666667
370,2017-01-08,158.33375,814.125,972.45875
370,2017-01-09,164.73041666666668,1000.125,1164.8554166666668
370,2017-01-10,154.18916666666667,1005.0416666666666,1159.2308333333333
370,2017-01-11,129.05583333333334,981.0833333333334,1110.1391666666668
370,2017-01-12,119.31333333333333,985.625,1104.9383333333333
370,2017-01-13,144.0375,955.2083333333334,1099.2458333333334
370,2017-01-14,157.31041666666667,832.5833333333334,989.8937500000001
370,2017-01-15,148.52666666666667,850.3333333333334,998.86
370,2017-01-16,144.01583333333335,866.9583333333334,1010.9741666666667
370,2017-01-17,138.52375,1055.8333333333333,1194.3570833333333
370,2017-01-18,135.08,1038.1666666666667,1173.2466666666667
370,2017-01-19,136.64791666666667,1032.75,1169.3979166666668
370,2017-01-20,133.87791666666666,1007.5416666666666,1141.4195833333333
370,2017-01-21,123.18041666666666,830.0833333333334,953.2637500000001
370,2017-01-22,123.59500000000001,833.8333333333334,957.4283333333334
370,2017-01-23,133.09625,1014.75,1147.84625
370,2017-01-24,141.39833333333334,1041.625,1183.0233333333333
370,2017-01-25,140.03625,1019.25,1159.28625
370,2017-01-26,131.26916666666668,1010.875,1142.1441666666667
370,2017-01-27,136.73875,995.25,1131.98875
370,2017-01-28,142.67666666666665,848.125,990.8016666666666
370,2017-01-29,4.4775,25.75,30.2275
370,2017-01-30,147.00083333333333,994.3333333333334,1141.3341666666668
370,2017-01-31,156.57125,1067.5416666666667,1224.1129166666667
370,2017-02-01,143.37083333333334,1050.6666666666667,1194.0375000000001
370,2017-02-02,148.88458333333332,1052.3333333333333,1201.2179166666665
370,2017-02-03,158.22333333333333,1029.75,1187.9733333333334
370,2017-02-04,156.77,865.7916666666666,1022.5616666666666
370,2017-02-05,141.49791666666667,886.3333333333334,1027.83125
370,2017-02-06,142.59041666666667,1063.5416666666667,1206.1320833333334
370,2017-02-07,63.981249999999996,417.0833333333333,481.0645833333333
370,2017-02-08,127.35041666666666,1064.2916666666667,1191.6420833333334
370,2017-02-09,150.15666666666667,1070.9166666666667,1221.0733333333335
370,2017-02-10,149.99166666666667,1026.3333333333333,1176.3249999999998
370,2017-02-11,134.63375,864.25,998.88375
370,2017-02-12,135.24416666666667,866.875,1002.1191666666666
370,2017-02-13,139.61791666666667,1062.6666666666667,1202.2845833333333
370,2017-02-14,134.19,1073.625,1207.815
370,2017-02-15,131.54958333333335,1074.6666666666667,1206.2162500000002
370,2017-02-16,147.195,1079.9166666666667,1227.1116666666667
370,2017-02-17,146.95583333333335,1044.7916666666667,1191.7475000000002
370,2017-02-18,130.77333333333334,841.2916666666666,972.0649999999999
370,2017-02-19,3.6958333333333333,25.291666666666668,28.9875
370,2017-02-20,0.0,0.0,0.0
370,2017-02-21,131.37541666666667,997.5,1128.8754166666668
370,2017-02-22,119.35458333333334,1048.875,1168.2295833333333
370,2017-02-23,109.18458333333332,1056.375,1165.5595833333334
370,2017-02-24,110.76583333333333,1022.25,1133.0158333333334
370,2017-02-25,110.82041666666667,883.125,993.9454166666667
370,2017-02-26,146.59666666666666,858.2083333333334,1004.8050000000001
370,2017-02-27,136.30833333333334,1013.875,1150.1833333333334
370,2017-02-28,125.18875000000001,1037.9583333333333,1163.1470833333333
370,2017-03-01,107.2325,1064.25,1171.4825
370,2017-03-02,3.7737499999999997,26.041666666666668,29.815416666666668
370,2017-03-03,151.97208333333333,971.25,1123.2220833333333
370,2017-03-04,5.202916666666667,26.083333333333332,31.28625
370,2017-03-05,0.0,0.0,0.0
370,2017-03-06,133.68791666666667,1003.2916666666666,1136.9795833333333
370,2017-03-07,3.85375,26.625,30.478749999999998
370,2017-03-08,0.0,0.0,0.0
370,2017-03-09,0.0,0.0,0.0
370,2017-03-10,0.0,0.0,0.0
370,2017-03-11,0.0,0.0,0.0
370,2017-03-12,0.0,0.0,0.0
370,2017-03-13,161.08291666666665,928.8333333333334,1089.91625
370,2017-03-14,160.97,907.5,1068.47
370,2017-03-15,161.2325,905.7083333333334,1066.9408333333333
370,2017-03-16,154.39124999999999,897.625,1052.01625
370,2017-03-17,150.86583333333334,892.5416666666666,1043.4075
370,2017-03-18,4.812916666666667,23.458333333333332,28.27125
370,2017-03-19,136.43125,744.7083333333334,881.1395833333333
370,2017-03-20,144.33041666666665,995.5,1139.8304166666667
370,2017-03-21,4.383333333333334,25.75,30.133333333333333
370,2017-03-22,0.0,0.0,0.0
370,2017-03-23,0.0,0.0,0.0
370,2017-03-24,0.0,0.0,0.0
370,2017-03-25,0.0,0.0,0.0
370,2017-03-26,0.0,0.0,0.0
370,2017-03-27,0.0,0.0,0.0
370,2017-03-28,0.0,0.0,0.0
370,2017-03-29,0.0,0.0,0.0
370,2017-03-30,0.0,0.0,0.0
370,2017-03-31,0.0,0.0,0.0
370,2017-04-01,137.34583333333333,793.1666666666666,930.5124999999999
370,2017-04-02,131.98541666666668,783.4166666666666,915.4020833333333
370,2017-04-03,112.30250000000001,984.625,1096.9275
370,2017-04-04,3.4175,26.916666666666668,30.33416666666667
370,2017-04-05,0.0,0.0,0.0
370,2017-04-06,0.0,0.0,0.0
370,2017-04-07,0.0,0.0,0.0
370,2017-04-08,0.0,0.0,0.0
370,2017-04-09,0.0,0.0,0.0
370,2017-04-10,0.0,0.0,0.0
370,2017-04-11,0.0,0.0,0.0
370,2017-04-12,0.0,0.0,0.0
370,2017-04-13,0.0,0.0,0.0
370,2017-04-14,0.0,0.0,0.0
370,2017-04-15,0.0,0.0,0.0
370,2017-04-16,0.0,0.0,0.0
370,2017-04-17,0.0,0.0,0.0
370,2017-04-18,0.0,0.0,0.0
370,2017-04-19,0.0,0.0,0.0
370,2017-04-20,0.0,0.0,0.0
370,2017-04-21,0.0,0.0,0.0
370,2017-04-22,0.0,0.0,0.0
370,2017-04-23,0.0,0.0,0.0
370,2017-04-24,48.477916666666665,0.0,48.477916666666665
370,2017-04-25,115.1125,0.0,115.1125
370,2017-04-26,100.40291666666667,588.2083333333334,688.61125
370,2017-04-27,55.08958333333334,1248.625,1303.7145833333334
370,2017-04-28,65.17166666666667,1179.9583333333333,1245.1299999999999
370,2017-04-29,123.96625,915.3333333333334,1039.2995833333334
370,2017-04-30,133.85083333333333,846.8333333333334,980.6841666666667
370,2017-05-01,98.00458333333334,1072.0416666666667,1170.04625
370,2017-05-02,110.94541666666667,1004.5416666666666,1115.4870833333332
370,2017-05-03,135.4925,942.5833333333334,1078.0758333333333
370,2017-05-04,4.3999999999999995,24.375,28.775
370,2017-05-05,125.39333333333333,907.3333333333334,1032.7266666666667
370,2017-05-06,4.03875,23.541666666666668,27.580416666666668
370,2017-05-07,0.0,0.0,0.0
370,2017-05-08,136.67833333333334,932.5833333333334,1069.2616666666668
370,2017-05-09,139.81791666666666,946.8333333333334,1086.6512500000001
370,2017-05-10,102.37583333333333,948.0,1050.3758333333333
370,2017-05-11,98.37791666666668,989.6666666666666,1088.0445833333333
370,2017-05-12,123.68374999999999,988.4166666666666,1112.1004166666667
370,2017-05-13,129.01500000000001,779.8333333333334,908.8483333333334
370,2017-05-14,128.52916666666667,765.2083333333334,893.7375000000001
370,2017-05-15,120.59541666666667,942.125,1062.7204166666666
370,2017-05-16,101.05541666666666,1023.4583333333334,1124.51375
370,2017-05-17,53.23791666666667,1264.0,1317.2379166666667
370,2017-05-18,12.854583333333332,1385.0,1397.8545833333333
370,2017-05-19,76.44625,1074.2916666666667,1150.7379166666667
370,2017-05-20,4.123333333333333,23.5,27.623333333333335
370,2017-05-21,83.9575,817.8333333333334,901.7908333333334
370,2017-05-22,2.8120833333333333,24.625,27.437083333333334
370,2017-05-23,0.0,0.0,0.0
370,2017-05-24,0.0,0.0,0.0
370,2017-05-25,7.190833333333334,79.625,86.81583333333333
370,2017-05-26,58.16958333333333,980.1666666666666,1038.33625
370,2017-05-27,74.40541666666667,891.8333333333334,966.23875
370,2017-05-28,80.75708333333334,867.2083333333334,947.9654166666667
370,2017-05-29,81.36083333333333,909.9166666666666,991.2774999999999
370,2017-05-30,81.41458333333334,1120.4166666666667,1201.8312500000002
370,2017-05-31,79.95125,1112.6666666666667,1192.6179166666668
370,2017-06-01,82.16791666666667,1046.7083333333333,1128.87625
370,2017-06-02,86.54041666666666,948.2083333333334,1034.74875
370,2017-06-03,86.52333333333333,817.8333333333334,904.3566666666667
370,2017-06-04,76.1425,792.4583333333334,868.6008333333334
370,2017-06-05,54.36083333333334,1104.3333333333333,1158.6941666666667
370,2017-06-06,58.52375,920.6666666666666,979.1904166666666
370,2017-06-07,0.0,27.25,27.25
370,2017-06-08,51.55125,1039.2083333333333,1090.7595833333332
370,2017-06-09,28.115416666666665,1092.7916666666667,1120.9070833333335
370,2017-06-10,0.0,1085.6666666666667,1085.6666666666667
370,2017-06-11,2.1858333333333335,1130.4583333333333,1132.6441666666665
370,2017-06-12,3.14,1424.875,1428.015
370,2017-06-13,0.0,34.625,34.625
370,2017-06-14,0.0,0.0,0.0
370,2017-06-15,0.0,1231.2916666666667,1231.2916666666667
370,2017-06-16,0.0,927.875,927.875
370,2017-06-17,0.0,0.0,0.0
370,2017-06-18,0.0,0.0,0.0
370,2017-06-19,0.0,0.0,0.0
370,2017-06-20,0.0,0.0,0.0
370,2017-06-21,0.0,1180.6666666666667,1180.6666666666667
370,2017-06-22,26.07041666666667,1212.8333333333333,1238.90375
370,2017-06-23,61.661249999999995,1370.8333333333333,1432.4945833333331
370,2017-06-24,76.63416666666667,1070.4166666666667,1147.0508333333335
370,2017-06-25,83.66125,977.7083333333334,1061.3695833333334
370,2017-06-26,84.5475,1061.75,1146.2975
370,2017-06-27,92.04833333333333,945.9583333333334,1038.0066666666667
370,2017-06-28,89.26791666666666,1070.0416666666667,1159.3095833333334
370,2017-06-29,82.58291666666666,1251.8333333333333,1334.41625
370,2017-06-30,78.17166666666667,1349.0,1427.1716666666666
370,2017-07-01,81.75666666666667,1130.2916666666667,1212.0483333333334
370,2017-07-02,82.1125,1123.5833333333333,1205.6958333333332
370,2017-07-03,80.64708333333333,1183.2916666666667,1263.93875
370,2017-07-04,84.33125,986.6666666666666,1070.9979166666667
370,2017-07-05,82.1075,1239.7083333333333,1321.8158333333333
370,2017-07-06,79.65125,1376.0833333333333,1455.7345833333334
370,2017-07-07,76.48916666666666,1364.1666666666667,1440.6558333333335
370,2017-07-08,81.81833333333334,1066.375,1148.1933333333334
370,2017-07-09,83.60708333333334,1010.25,1093.8570833333333
370,2017-07-10,79.86916666666666,1281.8333333333333,1361.7024999999999
370,2017-07-11,78.69416666666667,1403.0,1481.6941666666667
370,2017-07-12,77.98208333333334,1426.8333333333333,1504.8154166666666
370,2017-07-13,81.72041666666667,1287.5,1369.2204166666666
370,2017-07-14,81.20791666666666,1346.0833333333333,1427.29125
370,2017-07-15,83.67083333333333,1069.2083333333333,1152.8791666666666
370,2017-07-16,81.85208333333334,1081.8333333333333,1163.6854166666667
370,2017-07-17,79.81125,1415.1666666666667,1494.9779166666667
370,2017-07-18,78.98291666666667,1448.3333333333333,1527.3162499999999
370,2017-07-19,77.89458333333333,1431.625,1509.5195833333332
370,2017-07-20,75.56583333333333,1448.0833333333333,1523.6491666666666
370,2017-07-21,76.77166666666666,1344.5,1421.2716666666668
370,2017-07-22,80.50041666666667,1081.375,1161.8754166666668
370,2017-07-23,81.61041666666667,1104.875,1186.4854166666667
370,2017-07-24,80.91666666666667,1331.9166666666667,1412.8333333333335
370,2017-07-25,86.335,1192.6666666666667,1279.0016666666668
370,2017-07-26,85.13083333333334,1218.2916666666667,1303.4225000000001
370,2017-07-27,83.01875,1293.4166666666667,1376.4354166666667
370,2017-07-28,81.71708333333333,1203.6666666666667,1285.38375
370,2017-07-29,85.15541666666667,917.125,1002.2804166666667
370,2017-07-30,84.08916666666667,946.5,1030.5891666666666
370,2017-07-31,80.2775,1341.2083333333333,1421.4858333333332
370,2017-08-01,73.815,1404.6666666666667,1478.4816666666668
370,2017-08-02,66.2625,1434.7916666666667,1501.0541666666668
370,2017-08-03,70.63291666666667,1413.4583333333333,1484.09125
370,2017-08-04,22.506666666666664,330.7083333333333,353.215
370,2017-08-05,0.0,0.0,0.0
370,2017-08-06,0.0,0.0,0.0
370,2017-08-07,0.0,0.0,0.0
370,2017-08-08,0.0,0.0,0.0
370,2017-08-09,0.0,0.0,0.0
370,2017-08-10,0.0,0.0,0.0
370,2017-08-11,0.0,0.0,0.0
370,2017-08-12,0.0,0.0,0.0
370,2017-08-13,0.0,0.0,0.0
370,2017-08-14,0.0,0.0,0.0
370,2017-08-15,0.0,0.0,0.0
370,2017-08-16,0.0,0.0,0.0
370,2017-08-17,79.6825,1031.8333333333333,1111.5158333333334
370,2017-08-18,72.62958333333333,1429.2083333333333,1501.8379166666666
370,2017-08-19,78.33749999999999,1043.9583333333333,1122.2958333333333
370,2017-08-20,79.12958333333333,1112.2083333333333,1191.3379166666666
370,2017-08-21,76.06041666666667,1425.2916666666667,1501.3520833333334
370,2017-08-22,74.87333333333333,1560.4166666666667,1635.29
370,2017-08-23,79.47541666666667,1216.375,1295.8504166666667
370,2017-08-24,100.5,1007.9166666666666,1108.4166666666665
370,2017-08-25,99.83333333333333,1000.125,1099.9583333333333
370,2017-08-26,84.79166666666667,847.9583333333334,932.75
370,2017-08-27,91.78333333333335,843.7083333333334,935.4916666666667
370,2017-08-28,89.21375,1171.7916666666667,1261.0054166666669
370,2017-08-29,80.62,1147.5833333333333,1228.2033333333334
370,2017-08-30,85.15041666666666,1122.9583333333333,1208.1087499999999
370,2017-08-31,83.19291666666668,1156.875,1240.0679166666666
370,2017-09-01,109.53625,923.0833333333334,1032.6195833333334
370,2017-09-02,109.15041666666667,853.5,962.6504166666666
370,2017-09-03,85.57249999999999,846.5,932.0725
370,2017-09-04,78.36791666666666,965.4166666666666,1043.7845833333333
370,2017-09-05,79.7,1200.0416666666667,1279.7416666666668
370,2017-09-06,103.97000000000001,1097.125,1201.095
370,2017-09-07,113.65208333333334,1125.875,1239.5270833333334
370,2017-09-08,116.67583333333333,1069.75,1186.4258333333332
370,2017-09-09,119.98958333333333,869.0416666666666,989.03125
370,2017-09-10,3.8425,25.833333333333332,29.675833333333333
370,2017-09-11,112.57791666666667,1051.1666666666667,1163.7445833333334
370,2017-09-12,100.50375000000001,1181.3333333333333,1281.8370833333333
370,2017-09-13,68.98,1341.7083333333333,1410.6883333333333
370,2017-09-14,77.40625,1443.75,1521.15625
370,2017-09-15,77.05125,1329.2916666666667,1406.3429166666667
370,2017-09-16,46.03041666666667,1168.5833333333333,1214.61375
370,2017-09-17,59.905,1204.9583333333333,1264.8633333333332
370,2017-09-18,73.87791666666666,1460.2083333333333,1534.0862499999998
370,2017-09-19,63.08708333333333,1476.375,1539.4620833333333